[[{"header":{"parameterUnit":"m.s-1","parameterCategory":1,"la1":30.2991,"la2":30.254,"lo1":-89.0895,"lo2":-89.0444,"dy":0.0017,"dx":0.0017,"nx":28,"ny":28,"refTime":"2025-01-21T09:00:00:Z","depth":0,"parameterNumber":2,"parameterNumberName":"U-component_of_WINDS"},"data":[0,0,0,0,0,0,0,0,0,0,0,0,0,0,0,0,0,0,0,0,0,0,0,0,0,0,0,0,0,0,0,0,0,0,0,0,0,0,0,0,0,0,0,0,0,0,0,0,0,0,0,0,0,0,0,0,0,0,0.536,0.5358,0,0.5224,0.5222,0.5221,0.5097,0.5096,0.5094,0.5093,0.4955,0.4953,0.495,0,0,0,0,0,0,0,0,0,0,0,0,0,0.5514,0.5511,0.536,0.5358,0.5356,0.5224,0.5222,0.522,0.5097,0.5096,0.5094,0.5092,0.4956,0.4953,0.495,0,0,0,0,0,0,0,0,0,0,0,0,0,0.5419,0.5511,0.536,0.5279,0.527,0.5224,0.5222,0.522,0.5098,0.5096,0.5093,0.5091,0.4957,0.4953,0.495,0.4973,0,0,0.4939,0.4938,0,0,0,0,0,0,0,0,0.5425,0.5414,0.5293,0.5285,0.5275,0.5175,0.5226,0.5137,0.5098,0.5163,0.5093,0.509,0.503,0.502,0.5,0.4967,0.4961,0.4939,0.4937,0.4936,0.4935,0,0,0,0,0,0,0,0.5431,0.5419,0.5306,0.5291,0.528,0.525,0.5234,0.5208,0.5111,0.5158,0.5148,0.5134,0.5025,0.5004,0.4996,0.4959,0.4939,0.4936,0.4934,0.4933,0.4938,0.494,0,0,0,0,0,0,0.545,0.5425,0.531,0.5302,0.5346,0.5249,0.5231,0.5209,0.5111,0.5094,0.5136,0.5129,0.501,0.5,0.499,0.5012,0.4936,0.4932,0.493,0.4936,0.4938,0.4941,0,0,0,0,0,0,0.5454,0.5441,0.5316,0.5361,0.5343,0.5248,0.5225,0.5208,0.5186,0.5094,0.5077,0.5132,0.5008,0.4995,0.4978,0.5005,0.4931,0.4928,0.4933,0.4937,0.494,0.5055,0,0,0,0,0,0,0.5459,0.5443,0.5451,0.5362,0.5341,0.5306,0.5227,0.5207,0.5181,0.517,0.5086,0.507,0.5006,0.4984,0.4975,0.4999,0.4925,0.493,0.4935,0.4939,0.5048,0.5061,0.5073,0,0,0,0,0,0.5465,0.5489,0.5452,0.5439,0.5349,0.5308,0.5296,0.5221,0.5183,0.5191,0.5131,0.5073,0.5003,0.4983,0.4972,0.4996,0.4928,0.4934,0.4938,0.5042,0.5059,0.5073,0,0,0,0,0,0,0.5585,0.5476,0.5434,0.543,0.5379,0.5287,0.5294,0.524,0.5199,0.5191,0.51,0.5082,0.5075,0.5033,0.5013,0.5013,0.4958,0.4961,0.5041,0.5056,0.5068,0.5079,0.4922,0,0,0,0,0,0.5611,0.5587,0.5493,0.5499,0.5475,0.5389,0.5369,0.5315,0.5259,0.5237,0.5176,0.5124,0.5091,0.507,0.5034,0.5041,0.5021,0.5051,0.5064,0.5074,0.5078,0.5079,0.5091,0.4957,0.4957,0.4957,0,0,0.5664,0.5602,0.5592,0.5521,0.5475,0.5453,0.5372,0.5352,0.5334,0.5234,0.5214,0.5168,0.5104,0.5099,0.5094,0.5064,0.5111,0.5081,0.509,0.5088,0.5085,0.5098,0.511,0.496,0.496,0.4959,0,0,0.575,0.57,0.57,0.5655,0.5587,0.5529,0.553,0.5445,0.5411,0.5389,0.5314,0.5291,0.5235,0.5193,0.5164,0.5233,0.5178,0.5224,0.5289,0.5291,0.5301,0.531,0.5336,0.5346,0.5228,0.5228,0.5228,0,0.5825,0.5788,0.5706,0.569,0.5661,0.5569,0.5568,0.5528,0.5452,0.5435,0.5402,0.5329,0.5279,0.5263,0.528,0.5259,0.5257,0.5234,0.5306,0.5315,0.5322,0.5345,0.5355,0.5234,0.5233,0.5233,0.5232,0,0.5884,0.586,0.5867,0.5796,0.5767,0.5759,0.5676,0.5657,0.5606,0.5552,0.5532,0.5468,0.5418,0.541,0.536,0.5387,0.537,0.5323,0.5266,0.5342,0.5363,0.5371,0.5243,0.5241,0.5239,0.5237,0,0,0.6043,0.5926,0.593,0.5897,0.5814,0.5793,0.5781,0.5731,0.5717,0.5667,0.5654,0.5608,0.5564,0.5532,0.5475,0.5477,0.5537,0.5429,0.5426,0.5452,0.5563,0.56,0.5612,0.5499,0.55,0.5501,0.5569,0,0.6117,0.6089,0.6014,0.6009,0.5986,0.5897,0.5886,0.5834,0.5783,0.5756,0.5699,0.5669,0.5612,0.5592,0.5589,0.553,0.5558,0.5524,0.5487,0.5487,0.5507,0.5622,0.5661,0.5728,0.5576,0.5577,0.5578,0,0.6199,0.6154,0.6147,0.6065,0.6053,0.6044,0.5992,0.5967,0.5907,0.5869,0.5833,0.577,0.5752,0.5699,0.5673,0.5652,0.5632,0.56,0.5601,0.5596,0.5538,0.5621,0.5748,0.5759,0.559,0.5589,0.5588,0,0.6317,0.6255,0.6243,0.6216,0.6121,0.6117,0.6077,0.6014,0.5988,0.5943,0.5926,0.5879,0.5854,0.582,0.5747,0.5714,0.5729,0.5669,0.5699,0.5701,0.5707,0.5708,0.5834,0.5693,0.5692,0.5692,0.5692,0,0.6407,0.6407,0.6295,0.6287,0.6284,0.6198,0.6197,0.6148,0.6093,0.6075,0.5995,0.5979,0.5883,0.5856,0.5799,0.5787,0.5775,0.5745,0.573,0.5753,0.5758,0.574,0.5734,0.5695,0.5694,0.5694,0.5693,0,0.6539,0.6464,0.6445,0.6356,0.6333,0.6335,0.6258,0.6247,0.6191,0.6169,0.6159,0.6071,0.6036,0.5959,0.5903,0.5864,0.5866,0.5838,0.5887,0.5878,0.5912,0.591,0.6032,0.6044,0.5895,0.5897,0.5898,0,0.6603,0.66,0.651,0.6492,0.6455,0.6427,0.6401,0.6316,0.6292,0.6222,0.6221,0.6179,0.6141,0.6089,0.602,0.5977,0.5948,0.5993,0.5941,0.5964,0.595,0.5951,0.5951,0.6006,0.6008,0.6009,0.6011,0,0.6723,0.6686,0.6651,0.6604,0.6575,0.6533,0.6487,0.6477,0.6381,0.6358,0.6321,0.6291,0.6234,0.6193,0.614,0.6098,0.6039,0.6028,0.6032,0.6056,0.6085,0.6071,0.592,0.6026,0.6024,0.6023,0.6022,0.6022,0.6823,0.6817,0.6753,0.6717,0.6673,0.6632,0.6618,0.656,0.6527,0.6474,0.6425,0.6393,0.6331,0.6253,0.6215,0.6189,0.6159,0.6166,0.6168,0.6171,0.6181,0.6088,0.6178,0.6178,0.6177,0.6177,0.6177,0,0.6941,0.6895,0.6863,0.6801,0.6773,0.6718,0.6664,0.6644,0.6617,0.6565,0.6529,0.6486,0.6446,0.6375,0.6329,0.6321,0.6293,0.6312,0.6313,0.6304,0.621,0.6211,0.6336,0.6336,0.6336,0.6336,0.6336,0.6336,0.6999,0.6985,0.6941,0.6905,0.6858,0.6826,0.68,0.6762,0.6719,0.6675,0.6642,0.6595,0.6535,0.6484,0.6445,0.6425,0.6412,0.6441,0.6412,0.6326,0.6311,0.6297,0.6297,0.6438,0.6439,0.6509,0.6509,0.651]},{"header":{"parameterUnit":"m.s-1","parameterCategory":1,"la1":30.2991,"la2":30.254,"lo1":-89.0895,"lo2":-89.0444,"dy":0.0017,"dx":0.0017,"nx":28,"ny":28,"refTime":"2025-01-21T09:00:00:Z","depth":0,"parameterNumber":3,"parameterNumberName":"V-component_of_WINDS"},"data":[0,0,0,0,0,0,0,0,0,0,0,0,0,0,0,0,0,0,0,0,0,0,0,0,0,0,0,0,0,0,0,0,0,0,0,0,0,0,0,0,0,0,0,0,0,0,0,0,0,0,0,0,0,0,0,0,0,0,-1.7408,-1.7407,0,-1.7375,-1.7374,-1.7374,-1.7387,-1.7387,-1.7388,-1.7389,-1.7357,-1.7355,-1.7354,0,0,0,0,0,0,0,0,0,0,0,0,0,-1.7483,-1.7482,-1.7408,-1.7407,-1.7407,-1.7375,-1.7374,-1.7374,-1.7386,-1.7387,-1.7388,-1.7389,-1.7357,-1.7355,-1.7354,0,0,0,0,0,0,0,0,0,0,0,0,0,-1.745,-1.7481,-1.7408,-1.7409,-1.7409,-1.7375,-1.7374,-1.7374,-1.7386,-1.7387,-1.7389,-1.739,-1.7358,-1.7356,-1.7353,-1.7316,0,0,-1.7346,-1.7345,0,0,0,0,0,0,0,0,-1.7452,-1.7448,-1.7409,-1.7409,-1.7409,-1.7386,-1.7389,-1.7355,-1.7386,-1.7395,-1.7389,-1.739,-1.7366,-1.7363,-1.7354,-1.7315,-1.7314,-1.7346,-1.7345,-1.7344,-1.7343,0,0,0,0,0,0,0,-1.7454,-1.7449,-1.7395,-1.7409,-1.7408,-1.7412,-1.7409,-1.7383,-1.7374,-1.7394,-1.7395,-1.7391,-1.7366,-1.7356,-1.7354,-1.7313,-1.7346,-1.7344,-1.7343,-1.7342,-1.7241,-1.724,0,0,0,0,0,0,-1.7457,-1.7451,-1.7396,-1.7394,-1.7434,-1.741,-1.7406,-1.7392,-1.7375,-1.7373,-1.739,-1.7392,-1.736,-1.7356,-1.7352,-1.7307,-1.7344,-1.7341,-1.734,-1.7242,-1.7241,-1.7239,0,0,0,0,0,0,-1.7458,-1.7452,-1.7397,-1.7422,-1.7416,-1.7407,-1.7392,-1.7391,-1.7381,-1.7371,-1.737,-1.7382,-1.7361,-1.7356,-1.7325,-1.7306,-1.734,-1.7338,-1.7244,-1.7242,-1.724,-1.7216,0,0,0,0,0,0,-1.746,-1.7452,-1.7437,-1.7422,-1.7414,-1.7369,-1.7391,-1.7389,-1.7377,-1.7379,-1.7363,-1.7362,-1.7361,-1.7328,-1.7323,-1.7303,-1.7336,-1.7245,-1.7243,-1.724,-1.7218,-1.7213,-1.7209,0,0,0,0,0,-1.7463,-1.7433,-1.7437,-1.743,-1.7396,-1.7368,-1.7364,-1.7363,-1.7376,-1.7361,-1.7355,-1.7363,-1.7309,-1.7325,-1.7319,-1.7298,-1.7246,-1.7243,-1.7241,-1.722,-1.7214,-1.7209,0,0,0,0,0,0,-1.7447,-1.7431,-1.7435,-1.7399,-1.7385,-1.7371,-1.7352,-1.7357,-1.734,-1.7342,-1.7342,-1.7339,-1.7306,-1.73,-1.7318,-1.7261,-1.728,-1.7275,-1.7266,-1.7261,-1.7256,-1.7258,-1.7335,0,0,0,0,0,-1.7439,-1.7418,-1.7405,-1.7374,-1.7367,-1.7361,-1.7349,-1.7349,-1.7335,-1.7329,-1.7321,-1.7307,-1.7287,-1.7274,-1.7255,-1.7218,-1.7214,-1.7201,-1.7196,-1.7193,-1.7188,-1.7167,-1.7161,-1.723,-1.723,-1.723,0,0,-1.7423,-1.7411,-1.7398,-1.7371,-1.736,-1.7337,-1.7356,-1.7332,-1.7315,-1.7326,-1.7295,-1.7289,-1.7274,-1.7239,-1.7223,-1.7232,-1.7169,-1.7189,-1.7186,-1.7184,-1.7164,-1.7157,-1.7151,-1.7228,-1.7228,-1.7228,0,0,-1.7381,-1.7371,-1.7344,-1.7332,-1.7315,-1.7311,-1.7305,-1.729,-1.7285,-1.7255,-1.7262,-1.7243,-1.7209,-1.7197,-1.7187,-1.7141,-1.7147,-1.7135,-1.7111,-1.709,-1.7084,-1.708,-1.7062,-1.7055,-1.7131,-1.7131,-1.7131,0,-1.7363,-1.7329,-1.7329,-1.7304,-1.7291,-1.73,-1.7272,-1.7261,-1.7239,-1.723,-1.7241,-1.7198,-1.7188,-1.715,-1.7139,-1.7131,-1.7123,-1.7136,-1.7085,-1.708,-1.7076,-1.7059,-1.7052,-1.713,-1.713,-1.713,-1.713,0,-1.7307,-1.7284,-1.7264,-1.7241,-1.7227,-1.7201,-1.7196,-1.7182,-1.7184,-1.7179,-1.7148,-1.7137,-1.7115,-1.7107,-1.7109,-1.7069,-1.7075,-1.7085,-1.7103,-1.7068,-1.7052,-1.7045,-1.7128,-1.7128,-1.7129,-1.7129,0,0,-1.7254,-1.7231,-1.7224,-1.7213,-1.7195,-1.7177,-1.7151,-1.7129,-1.7116,-1.7102,-1.7079,-1.705,-1.7059,-1.7048,-1.7049,-1.7031,-1.6993,-1.7044,-1.7043,-1.7033,-1.6948,-1.6938,-1.6931,-1.6998,-1.6997,-1.6996,-1.6948,0,-1.721,-1.7163,-1.7162,-1.7119,-1.7097,-1.7104,-1.7082,-1.7069,-1.7063,-1.7044,-1.7039,-1.7018,-1.7033,-1.7025,-1.7008,-1.7002,-1.6976,-1.7005,-1.6977,-1.6976,-1.6979,-1.6923,-1.6913,-1.6868,-1.6942,-1.6941,-1.694,0,-1.7152,-1.7133,-1.7088,-1.7072,-1.7063,-1.7042,-1.7021,-1.7003,-1.6988,-1.6986,-1.6973,-1.6976,-1.695,-1.6971,-1.6934,-1.6954,-1.6943,-1.6938,-1.6937,-1.6932,-1.6955,-1.6915,-1.6854,-1.6847,-1.6931,-1.6932,-1.6932,0,-1.7115,-1.7079,-1.7047,-1.7038,-1.7019,-1.7004,-1.6996,-1.6982,-1.6969,-1.6952,-1.6943,-1.6923,-1.6912,-1.6897,-1.6895,-1.6911,-1.6858,-1.6879,-1.6855,-1.6855,-1.6842,-1.6843,-1.6776,-1.6838,-1.6838,-1.6838,-1.6838,0,-1.7065,-1.7036,-1.703,-1.701,-1.6978,-1.6978,-1.6947,-1.694,-1.6927,-1.6906,-1.6913,-1.6893,-1.6893,-1.6873,-1.6872,-1.6842,-1.6837,-1.6834,-1.6834,-1.6832,-1.6833,-1.6824,-1.6826,-1.6836,-1.6837,-1.6837,-1.6838,0,-1.7018,-1.7013,-1.6978,-1.6962,-1.6958,-1.6935,-1.6922,-1.6903,-1.6899,-1.6872,-1.6866,-1.6859,-1.6836,-1.6834,-1.6807,-1.6806,-1.6769,-1.6773,-1.6773,-1.6773,-1.6749,-1.675,-1.6673,-1.6662,-1.6733,-1.6732,-1.6731,0,-1.6985,-1.6963,-1.6945,-1.6931,-1.6921,-1.6899,-1.6885,-1.6884,-1.6869,-1.685,-1.6833,-1.6811,-1.6792,-1.6755,-1.6748,-1.6728,-1.673,-1.6705,-1.6727,-1.6726,-1.6728,-1.6728,-1.6726,-1.67,-1.6699,-1.6698,-1.6698,0,-1.6927,-1.6925,-1.6904,-1.6882,-1.6865,-1.6848,-1.6832,-1.682,-1.6817,-1.6801,-1.6776,-1.6762,-1.6734,-1.6712,-1.6692,-1.6684,-1.669,-1.6691,-1.6684,-1.6681,-1.6682,-1.6679,-1.6759,-1.6692,-1.6693,-1.6693,-1.6694,-1.6694,-1.6885,-1.6865,-1.6848,-1.6825,-1.6812,-1.6797,-1.6778,-1.6771,-1.675,-1.6727,-1.6728,-1.6701,-1.6687,-1.666,-1.6651,-1.663,-1.6639,-1.6629,-1.6626,-1.6624,-1.662,-1.6687,-1.6627,-1.6627,-1.6627,-1.6627,-1.6627,0,-1.6825,-1.6815,-1.6793,-1.677,-1.6751,-1.6758,-1.6741,-1.6725,-1.6701,-1.6686,-1.6668,-1.664,-1.6618,-1.6609,-1.6587,-1.6572,-1.6575,-1.6567,-1.6567,-1.6565,-1.6615,-1.6622,-1.6565,-1.6565,-1.6565,-1.6565,-1.6565,-1.6565,-1.6792,-1.6758,-1.6754,-1.6715,-1.6705,-1.6678,-1.6667,-1.6653,-1.6641,-1.6609,-1.659,-1.6585,-1.6572,-1.655,-1.653,-1.6528,-1.6519,-1.651,-1.6509,-1.6555,-1.6561,-1.6567,-1.6574,-1.6508,-1.6508,-1.646,-1.646,-1.646]}]]